TimeEDT,TemperatureF,Dew PointF,Humidity,Sea Level PressureIn,VisibilityMPH,Wind Direction,Wind SpeedMPH,Gust SpeedMPH,PrecipitationIn,Events,Conditions,WindDirDegrees,DateUTC
12:52 AM,24.8,24.8,100,-9999,0.1,West,18.4,-,N/A,Fog,Light Freezing Fog,260,2012-11-02 04:52:00
1:50 AM,24.8,24.8,100,-9999,0.2,North,-9999.0,-,N/A,Fog,Light Freezing Fog,0,2012-11-02 05:50:00
2:47 AM,23.0,23.0,100,-9999,0.0,West,19.6,-,N/A,Fog-Snow,Light Snow Showers,260,2012-11-02 06:47:00
3:47 AM,24.8,24.8,100,-9999,0.1,West,19.6,-,N/A,Fog-Snow,Light Snow Showers,260,2012-11-02 07:47:00
4:57 AM,26.6,24.8,93,-9999,80.0,West,21.9,-,N/A,,Overcast,260,2012-11-02 08:57:00
5:48 AM,24.8,24.8,100,-9999,0.1,West,18.4,-,N/A,Fog-Snow,Light Snow Showers,260,2012-11-02 09:48:00
6:55 AM,23.0,23.0,100,-9999,0.1,West,18.4,-,N/A,Fog-Snow,Light Snow Showers,260,2012-11-02 10:55:00
7:56 AM,23.5,22.5,96,-9999,80.0,West,19.6,-,N/A,,Mostly Cloudy,260,2012-11-02 11:56:00
8:55 AM,24.8,23.0,93,-9999,80.0,West,18.4,-,N/A,,Mostly Cloudy,260,2012-11-02 12:55:00
9:52 AM,26.6,24.8,93,-9999,70.0,West,18.4,-,N/A,,Mostly Cloudy,260,2012-11-02 13:52:00
10:58 AM,26.6,24.8,93,-9999,70.0,West,16.1,-,N/A,,Mostly Cloudy,260,2012-11-02 14:58:00
11:50 AM,28.4,26.6,93,-9999,1.0,South,6.9,-,N/A,,Mostly Cloudy,180,2012-11-02 15:50:00
12:50 PM,27.1,26.6,98,-9999,1.0,SW,6.9,-,N/A,,Mostly Cloudy,230,2012-11-02 16:50:00
1:57 PM,24.8,24.8,100,-9999,0.1,West,9.2,-,N/A,Fog-Snow,Light Snow Showers,260,2012-11-02 17:57:00
2:50 PM,24.8,24.8,100,-9999,0.1,West,16.1,-,N/A,Fog-Snow,Light Snow Showers,280,2012-11-02 18:50:00
3:52 PM,24.8,24.8,100,-9999,0.1,WNW,17.3,-,N/A,Fog-Snow,Light Snow Showers,290,2012-11-02 19:52:00
4:54 PM,23.0,23.0,100,-9999,0.1,West,18.4,-,N/A,Fog-Snow,Light Snow Showers,260,2012-11-02 20:54:00
5:49 PM,21.2,21.2,100,-9999,0.0,West,26.5,-,N/A,Fog,Light Freezing Fog,260,2012-11-02 21:49:00
5:50 PM,21.2,21.2,100,-9999,0.0,West,26.5,-,N/A,Fog,Light Freezing Fog,260,2012-11-02 21:50:00
6:50 PM,21.2,21.2,100,-9999,0.0,West,25.3,-,N/A,Fog,Light Freezing Fog,260,2012-11-02 22:50:00
7:50 PM,21.2,21.2,100,-9999,0.1,WNW,23.0,-,N/A,Fog,Light Freezing Fog,290,2012-11-02 23:50:00
8:51 PM,21.2,21.2,100,-9999,0.1,WNW,28.8,-,N/A,Fog,Light Freezing Fog,290,2012-11-03 00:51:00
9:50 PM,21.2,21.2,100,-9999,0.0,WNW,31.1,-,N/A,Fog,Light Freezing Fog,290,2012-11-03 01:50:00
10:54 PM,21.2,21.2,100,-9999,0.1,NW,31.1,-,N/A,Fog,Light Freezing Fog,310,2012-11-03 02:54:00
11:49 PM,21.2,21.2,100,-9999,0.0,NW,25.3,-,N/A,Fog,Light Freezing Fog,310,2012-11-03 03:49:00